Simultaneous Nadir Overpasses (SNOs) Predictions

Prediction of SNOs between GOES-17 and LANDSAT-8 Satellite Orbit:

Table of predicted SNOs for the next 14.0 days since TLE Epoch: 4/18/2025
Index Date Time (GOES-17) GOES-17 Lat,Lon LANDSAT-8 Lat,Lon Distance(km) Time Diff (sec)
1 04/19/2025 17:06:03 0.03,-104.40 -0.23,-103.27 129.75 80
2 04/20/2025 05:27:26 -0.02,-104.34 -0.91,-108.45 466.91 80
3 04/21/2025 16:53:49 0.02,-104.40 -0.85,-100.30 465.62 80
4 04/22/2025 05:15:12 -0.02,-104.34 -0.28,-105.49 130.99 80
5 04/24/2025 05:00:18 -0.01,-104.33 0.36,-102.52 205.43 80
6 04/24/2025 17:21:33 0.01,-104.39 0.72,-107.68 374.74 80
7 04/26/2025 17:09:18 0.01,-104.38 0.11,-104.71 38.12 80
8 04/28/2025 16:59:43 0.01,-104.38 -0.52,-101.75 298.52 80
9 04/29/2025 05:21:06 -0.01,-104.32 -0.59,-106.93 297.87 80
10 05/01/2025 05:06:11 -0.01,-104.31 0.08,-103.97 38.39 80
